Location: Sungai Anya
(2.6167°N, 114.0500°E)
Time: 18:54:21
(UTC+00:00)

Cosmos 2082 - Pass Details

Date: 19 October 2021
Orbit: 835 x 854 km, 71.0° (Epoch: 08 December)

Event Time Altitude Azimuth Distance (km) Brightness Sun altitude
Rises 10:50:30 0° 359° (N) 3,368 6.7 -10.7°
Reaches altitude 10° 10:53:05 10° 8° (N) 2,438 5.9 -11.4°
Maximum altitude 10:58:13 37° 74° (ENE) 1,267 4.1 -12.6°
Drops below altitude 10° 11:03:23 10° 141° (SE) 2,455 5.8 -13.9°
Sets 11:06:00 0° 149° (SSE) 3,394 6.6 -14.5°
